DW6169 Weather Reports


time (UTC)temp
C
wind
direction
speed
KPH
gust
KPH
rain 1hr
cm
rain 24hr
cm
rain mn
cm
humidity
%
barometer
mb
20260503053106 26 255 1.6 6.4 0.00 0.00 0.00 78 1014.7
20260503052600 26 234 1.6 8.0 0.00 0.00 0.00 78 1014.8
20260503052100 26 254 0.0 8.0 0.00 0.00 0.00 77 1014.9
20260503051600 26 237 1.6 8.0 0.00 0.00 0.00 77 1015.0
20260503051100 26 267 1.6 9.7 0.00 0.00 0.00 77 1015.0
20260503050603 26 257 1.6 9.7 0.00 0.00 0.00 77 1015.1
20260503050103 26 258 1.6 9.7 0.00 0.00 0.00 77 1015.1
20260503045559 26 295 3.2 9.7 0.00 0.00 0.00 76 1015.1
20260503045058 26 259 1.6 9.7 0.00 0.00 0.00 76 1015.0
20260503044558 26 266 1.6 8.0 0.00 0.00 0.00 76 1015.0
20260503044057 26 230 3.2 8.0 0.00 0.00 0.00 76 1015.0
20260503043557 26 244 0.0 4.8 0.00 0.00 0.00 75 1015.0
20260503043059 26 0 0.0 8.0 0.00 0.00 0.00 75 1015.0
20260503042557 26 253 1.6 9.7 0.00 0.00 0.00 75 1015.0
20260503042057 26 252 1.6 9.7 0.00 0.00 0.00 75 1015.0
20260503041558 26 273 1.6 11.3 0.00 0.00 0.00 74 1014.9
20260503041058 26 265 4.8 11.3 0.00 0.00 0.00 74 1015.0
20260503040558 26 280 3.2 11.3 0.00 0.00 0.00 74 1015.0
20260503040058 26 246 3.2 11.3 0.00 0.00 0.00 74 1015.1
20260503035600 26 273 3.2 11.3 0.00 0.00 0.00 73 1015.0
20260503035101 26 280 3.2 11.3 0.00 0.00 0.00 73 1014.9
20260503034600 26 237 1.6 11.3 0.00 0.00 0.00 73 1014.9
20260503034056 26 266 3.2 9.7 0.00 0.00 0.00 73 1014.8
20260503033602 27 267 3.2 11.3 0.00 0.00 0.00 73 1014.8
20260503033101 27 0 0.0 11.3 0.00 0.00 0.00 73 1014.7
20260503032559 27 262 1.6 11.3 0.00 0.00 0.00 73 1014.4
20260503032100 27 0 1.6 11.3 0.00 0.00 0.00 72 1014.6
20260503031558 27 254 1.6 11.3 0.00 0.00 0.00 72 1014.5
20260503031059 27 258 3.2 11.3 0.00 0.00 0.00 72 1014.6
20260503030600 27 248 1.6 12.9 0.00 0.00 0.00 72 1014.5
20260503030058 27 217 3.2 12.9 0.00 0.00 0.00 71 1014.5
20260503025558 27 250 3.2 8.0 0.00 0.00 0.00 71 1014.4
20260503025102 27 236 0.0 9.7 0.00 0.00 0.00 71 1014.4
20260503024625 27 254 3.2 11.3 0.00 0.00 0.00 70 1014.3
20260503024057 27 243 3.2 12.9 0.00 0.00 0.00 70 1014.5
20260503023557 27 246 3.2 12.9 0.00 0.00 0.00 70 1014.5
20260503023059 27 308 4.8 12.9 0.00 0.00 0.00 69 1014.5
20260503022556 27 234 4.8 11.3 0.00 0.00 0.00 69 1014.5
20260503022058 27 248 3.2 11.3 0.00 0.00 0.00 68 1014.3
20260503021559 27 248 3.2 12.9 0.00 0.00 0.00 67 1014.3
20260503021058 27 246 3.2 16.1 0.00 0.00 0.00 67 1014.3
20260503020600 27 259 3.2 16.1 0.00 0.00 0.00 67 1014.3
20260503020105 27 186 6.4 16.1 0.00 0.00 0.00 66 1014.3
20260503015559 28 309 4.8 16.1 0.00 0.00 0.00 65 1014.4
20260503015104 28 254 4.8 14.5 0.00 0.00 0.00 65 1014.2
20260503014628 28 261 4.8 17.7 0.00 0.00 0.00 64 1014.1
20260503014101 28 221 6.4 17.7 0.00 0.00 0.00 63 1014.2
20260503013601 28 257 6.4 17.7 0.00 0.00 0.00 63 1014.2
20260503013100 28 0 4.8 20.9 0.00 0.00 0.00 62 1014.1
20260503012600 28 240 6.4 20.9 0.00 0.00 0.00 61 1014.0
20260503012101 28 249 3.2 12.9 0.00 0.00 0.00 60 1013.9
20260503011635 28 241 3.2 14.5 0.00 0.00 0.00 59 1013.6
20260503011103 28 282 3.2 14.5 0.00 0.00 0.00 59 1013.6
20260503010558 28 297 3.2 12.9 0.00 0.00 0.00 58 1013.5
20260503010059 28 293 3.2 17.7 0.00 0.00 0.00 58 1013.5
20260503005601 28 250 3.2 17.7 0.00 0.00 0.00 57 1013.5
20260503005058 28 237 8.0 16.1 0.00 0.00 0.00 57 1013.5
20260503004602 29 265 6.4 19.3 0.00 0.00 0.00 56 1013.4
20260503004059 29 243 4.8 19.3 0.00 0.00 0.00 55 1013.4
20260503003558 29 244 4.8 16.1 0.00 0.00 0.00 54 1013.3
20260503003101 29 279 4.8 12.9 0.00 0.00 0.00 54 1013.1
20260503002600 30 261 4.8 12.9 0.00 0.00 0.00 53 1013.2
20260503002100 30 272 4.8 12.9 0.00 0.00 0.00 52 1013.0
20260503001602 30 252 3.2 12.9 0.00 0.00 0.00 51 1012.9
20260503001100 30 263 3.2 12.9 0.00 0.00 0.00 50 1012.9
20260503000559 30 259 3.2 12.9 0.00 0.00 0.00 49 1012.9
20260503000105 30 231 3.2 12.9 0.00 0.00 0.00 48 1012.7
20260502235601 30 250 3.2 16.1 0.00 0.00 0.00 48 1012.6
20260502235059 31 295 4.8 17.7 0.00 0.00 0.00 47 1012.6
20260502234615 31 244 6.4 17.7 0.00 0.00 0.00 46 1012.5
20260502234100 31 265 4.8 14.5 0.00 0.00 0.00 45 1012.5
20260502233558 31 312 3.2 16.1 0.00 0.00 0.00 44 1012.2
20260502233059 31 0 1.6 17.7 0.00 0.00 0.00 44 1012.2
20260502232600 31 230 6.4 17.7 0.00 0.00 0.00 42 1012.0
20260502232100 31 240 4.8 14.5 0.00 0.00 0.00 42 1011.9
20260502231600 31 257 4.8 16.1 0.00 0.00 0.00 41 1011.9
20260502231102 32 266 4.8 17.7 0.00 0.00 0.00 41 1011.9
20260502230559 32 290 4.8 17.7 0.00 0.00 0.00 40 1011.8
20260502230101 32 280 6.4 17.7 0.00 0.00 0.00 40 1011.6
20260502225559 32 284 6.4 16.1 0.00 0.00 0.00 39 1011.6
20260502225100 32 254 1.6 19.3 0.00 0.00 0.00 39 1011.4
20260502224559 33 229 8.0 19.3 0.00 0.00 0.00 38 1011.5
20260502224058 33 240 6.4 20.9 0.00 0.00 0.00 39 1011.5
20260502223600 33 244 4.8 20.9 0.00 0.00 0.00 38 1011.4
20260502223107 33 296 3.2 16.1 0.00 0.00 0.00 39 1011.4
20260502222559 33 255 6.4 17.7 0.00 0.00 0.00 39 1011.4
20260502222059 33 245 8.0 20.9 0.00 0.00 0.00 39 1011.4
20260502221559 33 247 4.8 20.9 0.00 0.00 0.00 39 1011.4
20260502221058 33 221 9.7 20.9 0.00 0.00 0.00 38 1011.3
20260502220558 33 288 9.7 20.9 0.00 0.00 0.00 37 1011.3
20260502220103 33 294 8.0 19.3 0.00 0.00 0.00 38 1011.4
20260502215559 34 221 8.0 20.9 0.00 0.00 0.00 37 1011.2
20260502215058 34 234 4.8 20.9 0.00 0.00 0.00 36 1011.3
20260502214559 34 268 8.0 19.3 0.00 0.00 0.00 36 1011.3
20260502214059 34 277 4.8 19.3 0.00 0.00 0.00 36 1011.1
20260502213558 34 235 6.4 17.7 0.00 0.00 0.00 35 1011.1
20260502213105 35 254 8.0 20.9 0.00 0.00 0.00 35 1011.1
20260502212601 35 264 8.0 20.9 0.00 0.00 0.00 36 1011.0
20260502212059 35 167 8.0 20.9 0.00 0.00 0.00 35 1011.0
20260502211559 35 225 4.8 17.7 0.00 0.00 0.00 36 1010.9
20260502211059 35 321 3.2 17.7 0.00 0.00 0.00 36 1010.9
20260502210558 35 288 6.4 19.3 0.00 0.00 0.00 35 1010.8
20260502210059 35 206 8.0 19.3 0.00 0.00 0.00 36 1010.7
20260502205559 35 273 3.2 16.1 0.00 0.00 0.00 37 1010.8
20260502205100 35 257 6.4 17.7 0.00 0.00 0.00 35 1010.9
20260502204604 35 284 6.4 24.1 0.00 0.00 0.00 35 1010.8
20260502204059 35 0 9.7 24.1 0.00 0.00 0.00 36 1011.0
20260502203559 35 233 8.0 19.3 0.00 0.00 0.00 37 1010.8
20260502203119 35 250 4.8 19.3 0.00 0.00 0.00 39 1010.9
20260502202600 35 227 3.2 24.1 0.00 0.00 0.00 39 1011.0
20260502202101 35 267 6.4 24.1 0.00 0.00 0.00 38 1011.1
20260502201625 35 266 9.7 20.9 0.00 0.00 0.00 38 1011.1
20260502201101 35 277 8.0 20.9 0.00 0.00 0.00 38 1011.2
20260502200558 35 243 8.0 25.7 0.00 0.00 0.00 38 1011.2
20260502200109 35 240 6.4 25.7 0.00 0.00 0.00 40 1011.3
20260502195601 35 229 9.7 25.7 0.00 0.00 0.00 38 1011.4
20260502195058 35 262 6.4 20.9 0.00 0.00 0.00 39 1011.3
20260502194604 35 331 6.4 24.1 0.00 0.00 0.00 37 1011.4
20260502194059 35 238 8.0 24.1 0.00 0.00 0.00 39 1011.4
20260502193600 35 236 3.2 22.5 0.00 0.00 0.00 43 1011.3
20260502193119 35 0 6.4 25.7 0.00 0.00 0.00 42 1011.4
20260502192600 35 261 6.4 25.7 0.00 0.00 0.00 41 1011.6
20260502192059 35 257 8.0 25.7 0.00 0.00 0.00 43 1011.6
20260502191601 35 263 9.7 27.4 0.00 0.00 0.00 42 1011.7
20260502191059 35 257 12.9 27.4 0.00 0.00 0.00 42 1011.6
20260502190600 35 208 4.8 24.1 0.00 0.00 0.00 44 1011.6
20260502190059 35 286 6.4 29.0 0.00 0.00 0.00 43 1011.6
20260502185559 34 285 8.0 29.0 0.00 0.00 0.00 43 1011.8
20260502185100 34 243 9.7 24.1 0.00 0.00 0.00 43 1011.7
20260502184605 35 190 11.3 24.1 0.00 0.00 0.00 43 1011.7
20260502184100 35 238 4.8 17.7 0.00 0.00 0.00 44 1011.7
20260502183559 34 312 6.4 22.5 0.00 0.00 0.00 45 1011.7
20260502183102 34 261 3.2 22.5 0.00 0.00 0.00 46 1011.9
20260502182558 34 230 4.8 27.4 0.00 0.00 0.00 45 1012.0
20260502182059 34 238 11.3 29.0 0.00 0.00 0.00 45 1012.0
20260502181601 33 213 9.7 29.0 0.00 0.00 0.00 45 1012.1
20260502181101 33 229 8.0 29.0 0.00 0.00 0.00 49 1012.2
20260502180601 32 119 4.8 19.3 0.00 0.00 0.00 52 1012.1
20260502180105 32 150 1.6 22.5 0.00 0.00 0.00 57 1012.1
20260502164059 31 243 1.6 9.7 0.00 0.00 0.00 65 1012.5
20260502163556 31 236 1.6 6.4 0.00 0.00 0.00 67 1012.5
20260502163100 31 0 1.6 14.5 0.00 0.00 0.00 67 1012.6
20260502162600 31 0 1.6 14.5 0.00 0.00 0.00 67 1012.7
20260502162100 31 147 1.6 14.5 0.00 0.00 0.00 67 1012.7
20260502161558 31 246 1.6 9.7 0.00 0.00 0.00 68 1012.8
20260502161058 31 138 1.6 11.3 0.00 0.00 0.00 68 1012.8
20260502160557 31 236 1.6 14.5 0.00 0.00 0.00 68 1012.8
20260502152102 31 205 3.2 11.3 0.00 0.00 0.00 65 1013.0
20260502151612 31 192 1.6 19.3 0.00 0.00 0.00 66 1013.1
20260502151058 31 181 1.6 19.3 0.00 0.00 0.00 65 1013.1
20260502150601 31 311 4.8 19.3 0.00 0.00 0.00 65 1013.1
20260502140103 29 321 1.6 8.0 0.00 0.00 0.00 72 1012.7
20260502130602 27 225 0.0 9.7 0.00 0.00 0.00 78 1012.7
20260502123559 26 246 0.0 4.8 0.00 0.00 0.00 85 1012.9
20260502123101 25 0 0.0 4.8 0.00 0.00 0.00 85 1012.9
20260502122604 25 0 0.0 0.0 0.00 0.00 0.00 85 1012.8
20260502122101 25 0 0.0 0.0 0.00 0.00 0.00 86 1012.8
20260502121601 25 0 0.0 3.2 0.00 0.00 0.00 86 1012.8
20260502121103 25 0 0.0 3.2 0.00 0.00 0.00 86 1012.8
20260502120600 25 0 0.0 0.0 0.00 0.00 0.00 86 1012.8
20260502115558 24 0 0.0 0.0 0.00 0.00 0.00 86 1012.7
20260502115101 23 0 0.0 0.0 0.00 0.00 0.00 86 1012.8
20260502114602 23 0 0.0 0.0 0.00 0.00 0.00 86 1012.8
20260502114100 23 0 0.0 0.0 0.00 0.00 0.00 85 1012.7
20260502113600 23 0 0.0 0.0 0.00 0.00 0.00 85 1012.8
20260502113125 23 0 0.0 0.0 0.00 0.00 0.00 85 1012.9
20260502112559 23 0 0.0 0.0 0.00 0.00 0.00 85 1013.0
20260502112101 23 0 0.0 0.0 0.00 0.00 0.00 85 1013.0
20260502111602 23 0 0.0 0.0 0.00 0.00 0.00 84 1012.9
20260502111059 23 0 0.0 0.0 0.00 0.00 0.00 84 1012.9
20260502110559 23 0 0.0 0.0 0.00 0.00 0.00 84 1013.0
20260502105559 23 0 0.0 0.0 0.00 0.00 0.00 84 1012.8
20260502105100 23 0 0.0 0.0 0.00 0.00 0.00 84 1012.9
20260502104610 23 0 0.0 0.0 0.00 0.00 0.00 85 1012.9
20260502104058 23 0 0.0 0.0 0.00 0.00 0.00 85 1012.7
20260502103601 23 0 0.0 0.0 0.00 0.00 0.00 85 1012.7
20260502103100 23 0 0.0 0.0 0.00 0.00 0.00 85 1012.7
20260502102558 23 0 0.0 0.0 0.00 0.00 0.00 85 1012.7
20260502102057 23 0 0.0 0.0 0.00 0.00 0.00 85 1012.7
20260502101611 23 0 0.0 0.0 0.00 0.00 0.00 85 1012.7
20260502101058 23 0 0.0 0.0 0.00 0.00 0.00 85 1012.7
20260502100557 23 0 0.0 0.0 0.00 0.00 0.00 85 1012.8
20260502091059 23 0 0.0 0.0 0.00 0.00 0.00 85 1012.7
20260502090556 23 0 0.0 0.0 0.00 0.00 0.00 85 1012.7
20260502090107 23 0 0.0 0.0 0.00 0.00 0.00 85 1012.5
20260502071058 23 0 0.0 0.0 0.00 0.00 0.00 83 1012.5
20260502070555 23 0 0.0 0.0 0.00 0.00 0.00 83 1012.5
20260502070115 23 0 0.0 0.0 0.00 0.00 0.00 83 1012.6
20260502065557 23 0 0.0 0.0 0.00 0.00 0.00 83 1012.7
20260502065056 23 0 0.0 0.0 0.00 0.00 0.00 83 1012.6
20260502064557 23 0 0.0 0.0 0.00 0.00 0.00 83 1012.6
20260502064056 24 0 0.0 0.0 0.00 0.00 0.00 83 1012.7
20260502063556 24 0 0.0 0.0 0.00 0.00 0.00 83 1012.6
20260502063113 24 0 0.0 0.0 0.00 0.00 0.00 83 1012.7
20260502062601 24 0 0.0 0.0 0.00 0.00 0.00 83 1012.8
20260502062056 24 0 0.0 0.0 0.00 0.00 0.00 83 1012.9
20260502061559 24 0 0.0 0.0 0.00 0.00 0.00 83 1012.8
20260502061055 24 0 0.0 0.0 0.00 0.00 0.00 82 1012.8
20260502060558 24 0 0.0 0.0 0.00 0.00 0.00 82 1012.8
20260502060058 24 0 0.0 0.0 0.00 0.00 0.00 82 1012.8
20260502055559 24 0 0.0 0.0 0.00 0.00 0.00 82 1012.7
20260502055059 24 0 0.0 0.0 0.00 0.00 0.00 82 1012.8
20260502054609 24 0 0.0 1.6 0.00 0.00 0.00 82 1012.7
20260502054059 24 0 0.0 1.6 0.00 0.00 0.00 82 1012.7
20260502053556 24 0 0.0 1.6 0.00 0.00 0.00 81 1012.7